iso_date,epoch_date,Year,Hour,Min,DOY,POS_DOY,Lat,Lon,BP,Ts,Ta,has_bp,has_ts,has_ta,BuoyID,Buoy_Type,Buoy_Owner,Logistics,Hemisphere
2019-10-07T07:49:17Z,1570434558,2019,8,49,280.3259,280.3259,84.98759,135.22759,-999.00,-1.78,-999.0,no,yes,no,44,unknown,unknown,unknown,North
2019-10-07T10:49:17Z,1570445358,2019,11,49,280.4509,280.4509,84.98044,135.33968,-999.00,-1.77,-999.0,no,yes,no,44,unknown,unknown,unknown,North
2019-10-07T13:49:17Z,1570456158,2019,14,49,280.5759,280.5759,84.97233,135.5082,-999.00,-1.77,-999.0,no,yes,no,44,unknown,unknown,unknown,North
2019-10-07T16:49:17Z,1570466958,2019,17,49,280.7009,280.7009,84.96173,135.69317,-999.00,-1.77,-999.0,no,yes,no,44,unknown,unknown,unknown,North
2019-10-07T19:49:17Z,1570477758,2019,20,49,280.8259,280.8259,84.94974,135.86971,-999.00,-1.77,-999.0,no,yes,no,44,unknown,unknown,unknown,North
2019-10-07T22:49:17Z,1570488558,2019,23,49,280.9509,280.9509,84.93994,136.086,-999.00,-1.77,-999.0,no,yes,no,44,unknown,unknown,unknown,North
2019-10-08T01:49:17Z,1570499358,2019,2,49,281.0759,281.0759,84.92792,136.37844,-999.00,-1.77,-999.0,no,yes,no,44,unknown,unknown,unknown,North
2019-10-08T04:49:17Z,1570510158,2019,5,49,281.2009,281.2009,84.91262,136.66785,-999.00,-1.77,-999.0,no,yes,no,44,unknown,unknown,unknown,North
2019-10-08T07:49:26Z,1570520966,2019,8,49,281.326,281.326,84.89449,136.87985,-999.00,-1.77,-999.0,no,yes,no,44,unknown,unknown,unknown,North
2019-10-08T10:49:17Z,1570531758,2019,11,49,281.4509,281.4509,84.87627,136.96822,-999.00,-1.77,-999.0,no,yes,no,44,unknown,unknown,unknown,North
2019-10-08T13:49:17Z,1570542558,2019,14,49,281.5759,281.5759,84.85946,136.96457,-999.00,-1.77,-999.0,no,yes,no,44,unknown,unknown,unknown,North
2019-10-08T16:49:17Z,1570553358,2019,17,49,281.7009,281.7009,84.84798,136.94982,-999.00,-1.77,-999.0,no,yes,no,44,unknown,unknown,unknown,North
2019-10-08T19:49:17Z,1570564158,2019,20,49,281.8259,281.8259,84.83707,136.94148,-999.00,-1.77,-999.0,no,yes,no,44,unknown,unknown,unknown,North
2019-10-08T22:49:17Z,1570574958,2019,23,49,281.9509,281.9509,84.82684,136.89186,-999.00,-1.77,-999.0,no,yes,no,44,unknown,unknown,unknown,North
2019-10-09T01:49:17Z,1570585758,2019,2,49,282.0759,282.0759,84.82186,136.8119,-999.00,-1.77,-999.0,no,yes,no,44,unknown,unknown,unknown,North
2019-10-09T04:49:17Z,1570596558,2019,5,49,282.2009,282.2009,84.82182,136.76021,-999.00,-1.77,-999.0,no,yes,no,44,unknown,unknown,unknown,North
2019-10-09T07:49:26Z,1570607366,2019,8,49,282.326,282.326,84.82019,136.73729,-999.00,-1.77,-999.0,no,yes,no,44,unknown,unknown,unknown,North
2019-10-09T10:49:17Z,1570618158,2019,11,49,282.4509,282.4509,84.81632,136.69624,-999.00,-1.77,-999.0,no,yes,no,44,unknown,unknown,unknown,North
2019-10-09T13:49:17Z,1570628958,2019,14,49,282.5759,282.5759,84.81512,136.6557,-999.00,-1.77,-999.0,no,yes,no,44,unknown,unknown,unknown,North
2019-10-09T16:49:17Z,1570639758,2019,17,49,282.7009,282.7009,84.81758,136.63357,-999.00,-1.77,-999.0,no,yes,no,44,unknown,unknown,unknown,North
2019-10-09T19:49:17Z,1570650558,2019,20,49,282.8259,282.8259,84.82144,136.60113,-999.00,-1.77,-999.0,no,yes,no,44,unknown,unknown,unknown,North
2019-10-09T22:49:17Z,1570661358,2019,23,49,282.9509,282.9509,84.82448,136.51302,-999.00,-1.77,-999.0,no,yes,no,44,unknown,unknown,unknown,North
2019-10-10T01:49:17Z,1570672158,2019,2,49,283.0759,283.0759,84.82878,136.38021,-999.00,-1.77,-999.0,no,yes,no,44,unknown,unknown,unknown,North
2019-10-10T04:49:17Z,1570682958,2019,5,49,283.2009,283.2009,84.83468,136.24693,-999.00,-1.78,-999.0,no,yes,no,44,unknown,unknown,unknown,North
2019-10-10T07:49:26Z,1570693766,2019,8,49,283.326,283.326,84.83602,136.15918,-999.00,-1.78,-999.0,no,yes,no,44,unknown,unknown,unknown,North
2019-10-10T10:49:17Z,1570704558,2019,11,49,283.4509,283.4509,84.832,136.08644,-999.00,-1.78,-999.0,no,yes,no,44,unknown,unknown,unknown,North
2019-10-10T13:49:17Z,1570715358,2019,14,49,283.5759,283.5759,84.82798,136.01496,-999.00,-1.78,-999.0,no,yes,no,44,unknown,unknown,unknown,North
2019-10-10T16:49:17Z,1570726158,2019,17,49,283.7009,283.7009,84.82541,136.00619,-999.00,-1.78,-999.0,no,yes,no,44,unknown,unknown,unknown,North
2019-10-10T19:49:17Z,1570736958,2019,20,49,283.8259,283.8259,84.82032,136.07981,-999.00,-1.78,-999.0,no,yes,no,44,unknown,unknown,unknown,North
2019-10-10T22:49:17Z,1570747758,2019,23,49,283.9509,283.9509,84.80957,136.18654,-999.00,-1.78,-999.0,no,yes,no,44,unknown,unknown,unknown,North
2019-10-11T01:49:17Z,1570758558,2019,2,49,284.0759,284.0759,84.79564,136.26653,-999.00,-1.78,-999.0,no,yes,no,44,unknown,unknown,unknown,North
2019-10-11T04:49:17Z,1570769358,2019,5,49,284.2009,284.2009,84.78479,136.31805,-999.00,-1.78,-999.0,no,yes,no,44,unknown,unknown,unknown,North
2019-10-11T07:49:26Z,1570780166,2019,8,49,284.326,284.326,84.77305,136.40388,-999.00,-1.78,-999.0,no,yes,no,44,unknown,unknown,unknown,North
2019-10-11T10:49:17Z,1570790958,2019,11,49,284.4509,284.4509,84.759,136.44034,-999.00,-1.78,-999.0,no,yes,no,44,unknown,unknown,unknown,North
2019-10-11T13:49:17Z,1570801758,2019,14,49,284.5759,284.5759,84.75127,136.45579,-999.00,-1.77,-999.0,no,yes,no,44,unknown,unknown,unknown,North
2019-10-11T16:49:17Z,1570812558,2019,17,49,284.7009,284.7009,84.74736,136.52236,-999.00,-1.77,-999.0,no,yes,no,44,unknown,unknown,unknown,North
2019-10-11T19:49:17Z,1570823358,2019,20,49,284.8259,284.8259,84.74274,136.59699,-999.00,-1.77,-999.0,no,yes,no,44,unknown,unknown,unknown,North
2019-10-11T22:49:17Z,1570834158,2019,23,49,284.9509,284.9509,84.7404,136.61641,-999.00,-1.77,-999.0,no,yes,no,44,unknown,unknown,unknown,North
2019-10-12T01:49:17Z,1570844958,2019,2,49,285.0759,285.0759,84.74741,136.60316,-999.00,-1.77,-999.0,no,yes,no,44,unknown,unknown,unknown,North
2019-10-12T04:49:17Z,1570855758,2019,5,49,285.2009,285.2009,84.75946,136.6154,-999.00,-1.78,-999.0,no,yes,no,44,unknown,unknown,unknown,North
2019-10-12T07:49:17Z,1570866558,2019,8,49,285.3259,285.3259,84.76723,136.59174,-999.00,-1.77,-999.0,no,yes,no,44,unknown,unknown,unknown,North
2019-10-12T10:49:17Z,1570877358,2019,11,49,285.4509,285.4509,84.7701,136.49817,-999.00,-1.77,-999.0,no,yes,no,44,unknown,unknown,unknown,North
2019-10-12T13:49:17Z,1570888158,2019,14,49,285.5759,285.5759,84.77435,136.35335,-999.00,-1.77,-999.0,no,yes,no,44,unknown,unknown,unknown,North
2019-10-12T16:49:17Z,1570898958,2019,17,49,285.7009,285.7009,84.77815,136.25652,-999.00,-1.77,-999.0,no,yes,no,44,unknown,unknown,unknown,North
2019-10-12T19:49:17Z,1570909758,2019,20,49,285.8259,285.8259,84.77686,136.1859,-999.00,-1.78,-999.0,no,yes,no,44,unknown,unknown,unknown,North
2019-10-12T22:49:17Z,1570920558,2019,23,49,285.9509,285.9509,84.7743,136.0585,-999.00,-1.78,-999.0,no,yes,no,44,unknown,unknown,unknown,North
2019-10-13T01:49:17Z,1570931358,2019,2,49,286.0759,286.0759,84.77441,135.91444,-999.00,-1.78,-999.0,no,yes,no,44,unknown,unknown,unknown,North
2019-10-13T04:49:17Z,1570942158,2019,5,49,286.2009,286.2009,84.773,135.81922,-999.00,-1.78,-999.0,no,yes,no,44,unknown,unknown,unknown,North
2019-10-13T07:49:17Z,1570952958,2019,8,49,286.3259,286.3259,84.76798,135.73882,-999.00,-1.78,-999.0,no,yes,no,44,unknown,unknown,unknown,North
2019-10-13T10:49:17Z,1570963758,2019,11,49,286.4509,286.4509,84.76222,135.64089,-999.00,-1.78,-999.0,no,yes,no,44,unknown,unknown,unknown,North
2019-10-13T13:49:17Z,1570974558,2019,14,49,286.5759,286.5759,84.7573,135.58749,-999.00,-1.78,-999.0,no,yes,no,44,unknown,unknown,unknown,North
2019-10-13T16:49:17Z,1570985358,2019,17,49,286.7009,286.7009,84.74945,135.61414,-999.00,-1.78,-999.0,no,yes,no,44,unknown,unknown,unknown,North
2019-10-13T19:49:17Z,1570996158,2019,20,49,286.8259,286.8259,84.73429,135.63238,-999.00,-1.78,-999.0,no,yes,no,44,unknown,unknown,unknown,North
2019-10-13T22:49:17Z,1571006958,2019,23,49,286.9509,286.9509,84.72011,135.55102,-999.00,-1.78,-999.0,no,yes,no,44,unknown,unknown,unknown,North
2019-10-14T01:49:17Z,1571017758,2019,2,49,287.0759,287.0759,84.71056,135.44953,-999.00,-1.78,-999.0,no,yes,no,44,unknown,unknown,unknown,North
2019-10-14T04:49:17Z,1571028558,2019,5,49,287.2009,287.2009,84.70223,135.39238,-999.00,-1.78,-999.0,no,yes,no,44,unknown,unknown,unknown,North
2019-10-14T07:49:17Z,1571039358,2019,8,49,287.3259,287.3259,84.69338,135.35374,-999.00,-1.78,-999.0,no,yes,no,44,unknown,unknown,unknown,North
2019-10-14T10:49:17Z,1571050158,2019,11,49,287.4509,287.4509,84.68966,135.30195,-999.00,-1.78,-999.0,no,yes,no,44,unknown,unknown,unknown,North
2019-10-14T13:49:17Z,1571060958,2019,14,49,287.5759,287.5759,84.68921,135.24962,-999.00,-1.78,-999.0,no,yes,no,44,unknown,unknown,unknown,North
2019-10-14T16:49:17Z,1571071758,2019,17,49,287.7009,287.7009,84.68875,135.1973,-999.00,-1.78,-999.0,no,yes,no,44,unknown,unknown,unknown,North
2019-10-14T19:49:17Z,1571082558,2019,20,49,287.8259,287.8259,84.6883,135.14498,-999.00,-1.78,-999.0,no,yes,no,44,unknown,unknown,unknown,North
2019-10-14T22:49:17Z,1571093358,2019,23,49,287.9509,287.9509,84.68785,135.09266,-999.00,-1.78,-999.0,no,yes,no,44,unknown,unknown,unknown,North
2019-10-15T01:49:17Z,1571104158,2019,2,49,288.0759,288.0759,84.68739,135.04034,-999.00,-1.78,-999.0,no,yes,no,44,unknown,unknown,unknown,North
2019-10-15T04:49:17Z,1571114958,2019,5,49,288.2009,288.2009,84.68694,134.98802,-999.00,-1.78,-999.0,no,yes,no,44,unknown,unknown,unknown,North
2019-10-15T07:49:17Z,1571125758,2019,8,49,288.3259,288.3259,84.68649,134.9357,-999.00,-1.78,-999.0,no,yes,no,44,unknown,unknown,unknown,North
2019-10-15T10:49:17Z,1571136558,2019,11,49,288.4509,288.4509,84.68603,134.88338,-999.00,-1.78,-999.0,no,yes,no,44,unknown,unknown,unknown,North
2019-10-15T13:49:17Z,1571147358,2019,14,49,288.5759,288.5759,84.68558,134.83106,-999.00,-1.78,-999.0,no,yes,no,44,unknown,unknown,unknown,North
2019-10-15T16:49:17Z,1571158158,2019,17,49,288.7009,288.7009,84.68513,134.77874,-999.00,-1.78,-999.0,no,yes,no,44,unknown,unknown,unknown,North
2019-10-15T19:49:17Z,1571168958,2019,20,49,288.8259,288.8259,84.68467,134.72641,-999.00,-1.78,-999.0,no,yes,no,44,unknown,unknown,unknown,North
2019-10-15T22:49:17Z,1571179758,2019,23,49,288.9509,288.9509,84.68422,134.67409,-999.00,-1.78,-999.0,no,yes,no,44,unknown,unknown,unknown,North
2019-10-16T02:39:41Z,1571193582,2019,3,40,289.1109,289.1109,84.6839,134.60196,-999.00,-1.78,-999.0,no,yes,no,44,unknown,unknown,unknown,North
2019-10-16T05:39:41Z,1571204382,2019,6,40,289.2359,289.2359,84.68454,134.51766,-999.00,-1.78,-999.0,no,yes,no,44,unknown,unknown,unknown,North
2019-10-16T08:39:41Z,1571215182,2019,9,40,289.3609,289.3609,84.68104,134.43326,-999.00,-1.78,-999.0,no,yes,no,44,unknown,unknown,unknown,North
2019-10-16T11:39:41Z,1571225982,2019,12,40,289.4859,289.4859,84.6787,134.29916,-999.00,-1.78,-999.0,no,yes,no,44,unknown,unknown,unknown,North
2019-10-16T14:39:41Z,1571236782,2019,15,40,289.6109,289.6109,84.68045,134.16698,-999.00,-1.78,-999.0,no,yes,no,44,unknown,unknown,unknown,North
2019-10-16T17:39:41Z,1571247582,2019,18,40,289.7359,289.7359,84.68179,134.09087,-999.00,-1.78,-999.0,no,yes,no,44,unknown,unknown,unknown,North
2019-10-16T20:39:41Z,1571258382,2019,21,40,289.8609,289.8609,84.67887,134.03153,-999.00,-1.78,-999.0,no,yes,no,44,unknown,unknown,unknown,North
2019-10-16T23:39:41Z,1571269182,2019,24,40,289.9859,289.9859,84.67584,133.91694,-999.00,-1.79,-999.0,no,yes,no,44,unknown,unknown,unknown,North
2019-10-17T02:39:50Z,1571279990,2019,3,40,290.111,290.111,84.67492,133.79393,-999.00,-1.79,-999.0,no,yes,no,44,unknown,unknown,unknown,North
2019-10-17T05:39:41Z,1571290782,2019,6,40,290.2359,290.2359,84.67518,133.73904,-999.00,-1.79,-999.0,no,yes,no,44,unknown,unknown,unknown,North
2019-10-17T08:39:41Z,1571301582,2019,9,40,290.3609,290.3609,84.67279,133.73293,-999.00,-1.79,-999.0,no,yes,no,44,unknown,unknown,unknown,North
2019-10-17T11:39:41Z,1571312382,2019,12,40,290.4859,290.4859,84.6697,133.69819,-999.00,-1.79,-999.0,no,yes,no,44,unknown,unknown,unknown,North
2019-10-17T14:39:41Z,1571323182,2019,15,40,290.6109,290.6109,84.6699,133.67931,-999.00,-1.79,-999.0,no,yes,no,44,unknown,unknown,unknown,North
2019-10-17T17:39:41Z,1571333982,2019,18,40,290.7359,290.7359,84.67192,133.72251,-999.00,-1.78,-999.0,no,yes,no,44,unknown,unknown,unknown,North
2019-10-17T20:39:41Z,1571344782,2019,21,40,290.8609,290.8609,84.67372,133.78299,-999.00,-1.79,-999.0,no,yes,no,44,unknown,unknown,unknown,North
2019-10-17T23:39:41Z,1571355582,2019,24,40,290.9859,290.9859,84.6788,133.79665,-999.00,-1.79,-999.0,no,yes,no,44,unknown,unknown,unknown,North
2019-10-18T02:39:41Z,1571366382,2019,3,40,291.1109,291.1109,84.69025,133.80978,-999.00,-1.79,-999.0,no,yes,no,44,unknown,unknown,unknown,North
2019-10-18T05:39:41Z,1571377182,2019,6,40,291.2359,291.2359,84.70345,133.86445,-999.00,-1.79,-999.0,no,yes,no,44,unknown,unknown,unknown,North
2019-10-18T08:39:41Z,1571387982,2019,9,40,291.3609,291.3609,84.71471,133.92014,-999.00,-1.79,-999.0,no,yes,no,44,unknown,unknown,unknown,North
2019-10-18T11:39:41Z,1571398782,2019,12,40,291.4859,291.4859,84.72847,133.92339,-999.00,-1.79,-999.0,no,yes,no,44,unknown,unknown,unknown,North
2019-10-18T14:39:41Z,1571409582,2019,15,40,291.6109,291.6109,84.74731,133.93196,-999.00,-1.79,-999.0,no,yes,no,44,unknown,unknown,unknown,North
2019-10-18T17:39:41Z,1571420382,2019,18,40,291.7359,291.7359,84.76689,133.98986,-999.00,-1.79,-999.0,no,yes,no,44,unknown,unknown,unknown,North
2019-10-18T20:39:41Z,1571431182,2019,21,40,291.8609,291.8609,84.78229,134.05081,-999.00,-1.79,-999.0,no,yes,no,44,unknown,unknown,unknown,North
2019-10-18T23:39:41Z,1571441982,2019,24,40,291.9859,291.9859,84.79739,134.04551,-999.00,-1.79,-999.0,no,yes,no,44,unknown,unknown,unknown,North
2019-10-19T02:39:41Z,1571452782,2019,3,40,292.1109,292.1109,84.81324,134.02667,-999.00,-1.79,-999.0,no,yes,no,44,unknown,unknown,unknown,North
2019-10-19T05:39:41Z,1571463582,2019,6,40,292.2359,292.2359,84.82394,134.02971,-999.00,-1.79,-999.0,no,yes,no,44,unknown,unknown,unknown,North
2019-10-19T08:39:41Z,1571474382,2019,9,40,292.3609,292.3609,84.83007,134.00286,-999.00,-1.79,-999.0,no,yes,no,44,unknown,unknown,unknown,North
2019-10-19T11:39:41Z,1571485182,2019,12,40,292.4859,292.4859,84.83821,133.93291,-999.00,-1.79,-999.0,no,yes,no,44,unknown,unknown,unknown,North
2019-10-19T14:39:41Z,1571495982,2019,15,40,292.6109,292.6109,84.84976,133.85516,-999.00,-1.79,-999.0,no,yes,no,44,unknown,unknown,unknown,North
2019-10-19T17:39:41Z,1571506782,2019,18,40,292.7359,292.7359,84.85812,133.81403,-999.00,-1.79,-999.0,no,yes,no,44,unknown,unknown,unknown,North
2019-10-19T20:39:41Z,1571517582,2019,21,40,292.8609,292.8609,84.8607,133.76388,-999.00,-1.79,-999.0,no,yes,no,44,unknown,unknown,unknown,North
2019-10-19T23:39:41Z,1571528382,2019,24,40,292.9859,292.9859,84.86452,133.68886,-999.00,-1.79,-999.0,no,yes,no,44,unknown,unknown,unknown,North
2019-10-20T02:39:41Z,1571539182,2019,3,40,293.1109,293.1109,84.87298,133.62345,-999.00,-1.79,-999.0,no,yes,no,44,unknown,unknown,unknown,North
2019-10-20T05:39:41Z,1571549982,2019,6,40,293.2359,293.2359,84.88146,133.59755,-999.00,-1.79,-999.0,no,yes,no,44,unknown,unknown,unknown,North
2019-10-20T08:39:41Z,1571560782,2019,9,40,293.3609,293.3609,84.88766,133.58143,-999.00,-1.79,-999.0,no,yes,no,44,unknown,unknown,unknown,North
2019-10-20T11:39:41Z,1571571582,2019,12,40,293.4859,293.4859,84.89587,133.54572,-999.00,-1.79,-999.0,no,yes,no,44,unknown,unknown,unknown,North
2019-10-20T14:39:41Z,1571582382,2019,15,40,293.6109,293.6109,84.90894,133.52898,-999.00,-1.79,-999.0,no,yes,no,44,unknown,unknown,unknown,North
2019-10-20T17:39:41Z,1571593182,2019,18,40,293.7359,293.7359,84.92377,133.60182,-999.00,-1.79,-999.0,no,yes,no,44,unknown,unknown,unknown,North
2019-10-20T20:39:41Z,1571603982,2019,21,40,293.8609,293.8609,84.93378,133.69483,-999.00,-1.79,-999.0,no,yes,no,44,unknown,unknown,unknown,North
2019-10-20T23:39:41Z,1571614782,2019,24,40,293.9859,293.9859,84.94737,133.67924,-999.00,-1.79,-999.0,no,yes,no,44,unknown,unknown,unknown,North
2019-10-21T02:39:41Z,1571625582,2019,3,40,294.1109,294.1109,84.97059,133.64331,-999.00,-1.79,-999.0,no,yes,no,44,unknown,unknown,unknown,North
2019-10-21T05:39:41Z,1571636382,2019,6,40,294.2359,294.2359,84.99184,133.63659,-999.00,-1.79,-999.0,no,yes,no,44,unknown,unknown,unknown,North
2019-10-21T08:39:41Z,1571647182,2019,9,40,294.3609,294.3609,85.00672,133.57963,-999.00,-1.79,-999.0,no,yes,no,44,unknown,unknown,unknown,North
2019-10-21T11:39:41Z,1571657982,2019,12,40,294.4859,294.4859,85.02486,133.44698,-999.00,-1.79,-999.0,no,yes,no,44,unknown,unknown,unknown,North
2019-10-21T14:39:41Z,1571668782,2019,15,40,294.6109,294.6109,85.04737,133.3061,-999.00,-1.79,-999.0,no,yes,no,44,unknown,unknown,unknown,North
2019-10-21T17:39:41Z,1571679582,2019,18,40,294.7359,294.7359,85.06737,133.18973,-999.00,-1.79,-999.0,no,yes,no,44,unknown,unknown,unknown,North
2019-10-21T20:39:41Z,1571690382,2019,21,40,294.8609,294.8609,85.08364,133.0604,-999.00,-1.79,-999.0,no,yes,no,44,unknown,unknown,unknown,North
2019-10-21T23:39:41Z,1571701182,2019,24,40,294.9859,294.9859,85.10374,132.88644,-999.00,-1.78,-999.0,no,yes,no,44,unknown,unknown,unknown,North
2019-10-22T02:39:41Z,1571711982,2019,3,40,295.1109,295.1109,85.12835,132.7171,-999.00,-1.79,-999.0,no,yes,no,44,unknown,unknown,unknown,North
2019-10-22T05:39:41Z,1571722782,2019,6,40,295.2359,295.2359,85.15086,132.57197,-999.00,-1.79,-999.0,no,yes,no,44,unknown,unknown,unknown,North
2019-10-22T08:39:41Z,1571733582,2019,9,40,295.3609,295.3609,85.16747,132.39773,-999.00,-1.78,-999.0,no,yes,no,44,unknown,unknown,unknown,North
2019-10-22T11:39:41Z,1571744382,2019,12,40,295.4859,295.4859,85.18122,132.18956,-999.00,-1.78,-999.0,no,yes,no,44,unknown,unknown,unknown,North
2019-10-22T14:39:41Z,1571755182,2019,15,40,295.6109,295.6109,85.19567,131.98277,-999.00,-1.78,-999.0,no,yes,no,44,unknown,unknown,unknown,North
2019-10-22T17:39:41Z,1571765982,2019,18,40,295.7359,295.7359,85.20955,131.81043,-999.00,-1.78,-999.0,no,yes,no,44,unknown,unknown,unknown,North
2019-10-22T20:39:41Z,1571776782,2019,21,40,295.8609,295.8609,85.22032,131.65271,-999.00,-1.78,-999.0,no,yes,no,44,unknown,unknown,unknown,North
2019-10-22T23:39:41Z,1571787582,2019,24,40,295.9859,295.9859,85.23021,131.47228,-999.00,-1.78,-999.0,no,yes,no,44,unknown,unknown,unknown,North
2019-10-23T02:39:41Z,1571798382,2019,3,40,296.1109,296.1109,85.24125,131.28755,-999.00,-1.78,-999.0,no,yes,no,44,unknown,unknown,unknown,North
2019-10-23T05:39:41Z,1571809182,2019,6,40,296.2359,296.2359,85.25046,131.1313,-999.00,-1.78,-999.0,no,yes,no,44,unknown,unknown,unknown,North
2019-10-23T08:39:41Z,1571819982,2019,9,40,296.3609,296.3609,85.25585,130.99272,-999.00,-1.78,-999.0,no,yes,no,44,unknown,unknown,unknown,North
2019-10-23T11:39:41Z,1571830782,2019,12,40,296.4859,296.4859,85.26061,130.86305,-999.00,-1.78,-999.0,no,yes,no,44,unknown,unknown,unknown,North
2019-10-23T14:39:41Z,1571841582,2019,15,40,296.6109,296.6109,85.26668,130.76235,-999.00,-1.78,-999.0,no,yes,no,44,unknown,unknown,unknown,North
2019-10-23T17:39:41Z,1571852382,2019,18,40,296.7359,296.7359,85.27261,130.68626,-999.00,-1.78,-999.0,no,yes,no,44,unknown,unknown,unknown,North
2019-10-23T20:39:41Z,1571863182,2019,21,40,296.8609,296.8609,85.27732,130.60553,-999.00,-1.78,-999.0,no,yes,no,44,unknown,unknown,unknown,North
2019-10-23T23:39:41Z,1571873982,2019,24,40,296.9859,296.9859,85.28338,130.49434,-999.00,-1.78,-999.0,no,yes,no,44,unknown,unknown,unknown,North
2019-10-24T02:39:41Z,1571884782,2019,3,40,297.1109,297.1109,85.29374,130.38389,-999.00,-1.78,-999.0,no,yes,no,44,unknown,unknown,unknown,North
2019-10-24T05:39:41Z,1571895582,2019,6,40,297.2359,297.2359,85.30458,130.29213,-999.00,-1.78,-999.0,no,yes,no,44,unknown,unknown,unknown,North
2019-10-24T08:39:41Z,1571906382,2019,9,40,297.3609,297.3609,85.31403,130.17887,-999.00,-1.78,-999.0,no,yes,no,44,unknown,unknown,unknown,North
2019-10-24T11:39:41Z,1571917182,2019,12,40,297.4859,297.4859,85.32269,130.02953,-999.00,-1.78,-999.0,no,yes,no,44,unknown,unknown,unknown,North
2019-10-24T14:39:41Z,1571927982,2019,15,40,297.6109,297.6109,85.33413,129.863,-999.00,-1.78,-999.0,no,yes,no,44,unknown,unknown,unknown,North
2019-10-24T17:39:41Z,1571938782,2019,18,40,297.7359,297.7359,85.34584,129.72691,-999.00,-1.78,-999.0,no,yes,no,44,unknown,unknown,unknown,North
2019-10-24T20:39:41Z,1571949582,2019,21,40,297.8609,297.8609,85.3532,129.60458,-999.00,-1.78,-999.0,no,yes,no,44,unknown,unknown,unknown,North
2019-10-24T23:39:41Z,1571960382,2019,24,40,297.9859,297.9859,85.35963,129.42904,-999.00,-1.78,-999.0,no,yes,no,44,unknown,unknown,unknown,North
2019-10-25T02:39:41Z,1571971182,2019,3,40,298.1109,298.1109,85.36641,129.27926,-999.00,-1.78,-999.0,no,yes,no,44,unknown,unknown,unknown,North
2019-10-25T05:39:41Z,1571981982,2019,6,40,298.2359,298.2359,85.3708,129.19347,-999.00,-1.78,-999.0,no,yes,no,44,unknown,unknown,unknown,North
2019-10-25T08:39:41Z,1571992782,2019,9,40,298.3609,298.3609,85.3721,129.12329,-999.00,-1.78,-999.0,no,yes,no,44,unknown,unknown,unknown,North
2019-10-25T11:39:41Z,1572003582,2019,12,40,298.4859,298.4859,85.37336,129.02847,-999.00,-1.78,-999.0,no,yes,no,44,unknown,unknown,unknown,North
2019-10-25T14:39:41Z,1572014382,2019,15,40,298.6109,298.6109,85.37542,128.94598,-999.00,-1.78,-999.0,no,yes,no,44,unknown,unknown,unknown,North
2019-10-25T17:39:41Z,1572025182,2019,18,40,298.7359,298.7359,85.3775,128.883,-999.00,-1.78,-999.0,no,yes,no,44,unknown,unknown,unknown,North
2019-10-25T20:39:41Z,1572035982,2019,21,40,298.8609,298.8609,85.37759,128.81814,-999.00,-1.78,-999.0,no,yes,no,44,unknown,unknown,unknown,North
2019-10-25T23:39:41Z,1572046782,2019,24,40,298.9859,298.9859,85.37753,128.74302,-999.00,-1.78,-999.0,no,yes,no,44,unknown,unknown,unknown,North
2019-10-26T02:39:41Z,1572057582,2019,3,40,299.1109,299.1109,85.37893,128.67703,-999.00,-1.78,-999.0,no,yes,no,44,unknown,unknown,unknown,North
2019-10-26T05:39:41Z,1572068382,2019,6,40,299.2359,299.2359,85.38071,128.63778,-999.00,-1.78,-999.0,no,yes,no,44,unknown,unknown,unknown,North
2019-10-26T08:39:41Z,1572079182,2019,9,40,299.3609,299.3609,85.38143,128.5918,-999.00,-1.78,-999.0,no,yes,no,44,unknown,unknown,unknown,North
2019-10-26T11:39:41Z,1572089982,2019,12,40,299.4859,299.4859,85.38275,128.51674,-999.00,-1.78,-999.0,no,yes,no,44,unknown,unknown,unknown,North
2019-10-26T14:39:41Z,1572100782,2019,15,40,299.6109,299.6109,85.38588,128.44389,-999.00,-1.78,-999.0,no,yes,no,44,unknown,unknown,unknown,North
2019-10-26T17:39:41Z,1572111582,2019,18,40,299.7359,299.7359,85.38946,128.39689,-999.00,-1.78,-999.0,no,yes,no,44,unknown,unknown,unknown,North
2019-10-26T20:39:41Z,1572122382,2019,21,40,299.8609,299.8609,85.3926,128.34774,-999.00,-1.78,-999.0,no,yes,no,44,unknown,unknown,unknown,North
2019-10-26T23:39:41Z,1572133182,2019,24,40,299.9859,299.9859,85.39671,128.26963,-999.00,-1.78,-999.0,no,yes,no,44,unknown,unknown,unknown,North
2019-10-27T02:39:41Z,1572143982,2019,3,40,300.1109,300.1109,85.40286,128.19076,-999.00,-1.79,-999.0,no,yes,no,44,unknown,unknown,unknown,North
2019-10-27T05:39:41Z,1572154782,2019,6,40,300.2359,300.2359,85.41011,128.13599,-999.00,-1.79,-999.0,no,yes,no,44,unknown,unknown,unknown,North
2019-10-27T08:39:41Z,1572165582,2019,9,40,300.3609,300.3609,85.41651,128.07636,-999.00,-1.79,-999.0,no,yes,no,44,unknown,unknown,unknown,North
2019-10-27T11:39:41Z,1572176382,2019,12,40,300.4859,300.4859,85.42352,127.99909,-999.00,-1.79,-999.0,no,yes,no,44,unknown,unknown,unknown,North
2019-10-27T14:39:41Z,1572187182,2019,15,40,300.6109,300.6109,85.43212,127.92531,-999.00,-1.79,-999.0,no,yes,no,44,unknown,unknown,unknown,North
2019-10-27T17:39:41Z,1572197982,2019,18,40,300.7359,300.7359,85.44175,127.8676,-999.00,-1.78,-999.0,no,yes,no,44,unknown,unknown,unknown,North
2019-10-27T20:39:41Z,1572208782,2019,21,40,300.8609,300.8609,85.45153,127.79637,-999.00,-1.78,-999.0,no,yes,no,44,unknown,unknown,unknown,North
2019-10-27T23:39:41Z,1572219582,2019,24,40,300.9859,300.9859,85.46267,127.68049,-999.00,-1.79,-999.0,no,yes,no,44,unknown,unknown,unknown,North